Weather in Borislav

Ukraine / Lviv District     49°17′21″N   23°25′08″E
temp.,
°C
wind,
m/s
gust,
m/s
humid.,
%
clouds,
%
prec.,
mm/h
press.,
hPa
HPBL,
m
31 july, sat
sat3100:00+19ssw33705 0.0 101144
03:00+17sw33698 0.0 101046
06:00+19sw2262100 0.0 101039
09:00+23ssw125836 0.0 1010217
12:00+29ssw23375 0.0 10092388
15:00+28e234399 0.0 10081846
18:00+22wsw5106578 0.1 1009416
21:00+17nnw3799100 0.9 1010341
1 august, sun
sun100:00+17wnw239892 2.0 1012163
03:00+15sw22960 2.0 101220
06:00+14ssw22910 0.0 101116
09:00+20sse12770 0.0 1011149
12:00+26ese35505 0.0 1010959
15:00+29ese46449 0.0 10081217
18:00+29sse3751100 0.1 10051440
21:00+15s41189100 7.0 1006175
2 august, mon
mon200:00+17nw36902 0.0 1007158
03:00+16sw11935 0.0 100611
06:00+14wnw23988 0.0 100867
09:00+18nw348390 0.0 1009574
12:00+15nnw4797100 0.6 1011578
15:00+14wnw259592 2.1 1012386
18:00+15w2384100 0.1 1013343
21:00+13w229392 0.1 101425
3 august, tue
tue300:00+12wsw22945 0.0 101522
03:00+11sw22915 0.0 101618
06:00+11sw21933 0.0 101614
09:00+17wsw12700 0.0 1017314
12:00+22nw134817 0.0 10161710
15:00+22nnw344998 0.0 10151045
18:00+22nne125064 0.0 10151199
21:00+18se117398 0.0 101617
4 august, wed
wed400:00+14s2284100 0.1 101613
03:00+16s227696 0.1 101525
06:00+14ssw22740 0.0 101525
09:00+20ssw2458100 0.0 1015174
12:00+26sw353684 0.0 10142188
15:00+27wsw3535100 0.0 10132648
18:00+26ese125187 0.0 1012892
21:00+20se3775100 0.0 1012148